Location: Unspecified
(35.6961°N, 0.0000°E)
Time: 08:49:11
(UTC+00:00)

Vanguard 3 - Pass Details

Date: 03 June 2019
Orbit: 508 x 3263 km, 33.3° (Epoch: 25 June)

Event Time Altitude Azimuth Distance (km) Brightness Sun altitude
Rises 15:47:28 0° 209° (SSW) 2,847 10.3 38.9°
Reaches altitude 10° 15:51:12 10° 175° (S) 1,749 8.9 38.1°
Maximum altitude 15:52:36 12° 153° (SSE) 1,613 8.6 37.8°
Drops below altitude 10° 15:53:57 10° 130° (SE) 1,708 8.5 37.5°
Sets 15:57:28 0° 96° (E) 2,679 9.3 36.8°
